Wind_Speed
42 44 45 39 32 31 35 38 40 41 40 41 42 43 45 45 43 37 39 45 46 48 49 46 49 48 41 37 36 34 33 34 34 35 36 35 34 34 35 37 39 41 39 38 39 40 40 38 39 40 40 41 42 41 41 41 42 43 44 45 45 44 43 42 41 41 43 46 47 46 45 44 43 42 42 43 43 43 42 42 43 43 43 43 44 44
43 46 44 36 32 33 36 39 41 41 40 41 42 43 43 44 41 37 39 44 45 49 50 47 50 50 43 38 36 34 33 32 32 34 35 33 32 32 33 36 38 39 38 38 39 41 40 39 40 41 41 41 41 42 42 43 44 45 46 47 47 46 45 43 42 43 45 47 47 46 45 44 44 44 44 45 44 43 42 43 43 43 44 45 46 46
48 49 43 36 35 37 38 39 41 42 41 42 43 45 46 43 41 40 41 43 45 49 50 49 52 52 45 39 35 33 33 33 33 33 31 29 29 29 32 37 37 37 37 37 39 41 41 41 41 41 41 41 40 41 42 43 45 46 47 48 47 46 44 43 43 44 47 48 48 47 46 45 46 46 46 46 44 43 43 43 43 44 45 46 47 47
51 51 45 40 39 40 41 41 42 43 43 44 46 48 49 43 42 44 44 45 46 48 50 50 53 53 45 39 34 31 32 33 32 31 27 27 28 29 33 37 36 36 36 38 40 42 42 41 40 40 40 40 39 40 41 43 44 45 47 47 46 45 44 44 45 47 49 49 49 48 47 46 47 47 47 46 45 45 44 45 46 47 47 48 48 49
53 52 50 46 42 43 44 44 45 44 43 46 49 50 48 44 44 46 46 49 50 49 50 50 55 53 43 37 33 29 30 30 30 29 28 28 29 30 32 33 34 36 37 39 41 40 41 40 39 39 39 38 38 40 41 43 44 45 46 46 46 45 45 46 48 50 51 50 50 49 48 48 47 47 47 46 46 46 47 47 48 48 48 48 49 50
55 54 52 48 46 45 46 47 47 46 46 49 51 49 47 45 46 47 48 52 54 53 51 52 56 53 43 37 33 29 29 29 28 29 28 28 28 29 30 31 33 35 37 40 42 40 38 38 37 37 37 37 38 40 42 43 44 45 46 46 46 47 48 50 51 52 52 51 51 50 50 48 47 47 46 46 47 48 48 48 48 48 48 49 50 51
57 55 52 49 48 48 49 50 47 45 48 51 51 48 46 46 48 49 49 53 56 55 54 56 58 55 47 39 36 35 33 31 29 28 27 27 28 29 31 32 34 35 37 41 43 41 37 35 34 35 36 37 39 40 42 44 45 46 47 47 48 50 51 53 53 52 52 51 51 50 48 46 46 46 46 47 47 48 49 49 48 49 50 51 52 52
55 55 53 51 50 51 52 51 46 44 49 52 51 49 49 49 50 51 51 52 55 56 57 59 58 58 52 43 40 41 40 37 33 30 29 28 28 29 32 36 38 37 38 40 41 39 36 33 34 35 36 37 39 41 43 45 46 47 49 50 51 53 54 54 53 52 50 50 48 46 43 43 46 47 47 48 48 49 50 50 50 51 52 53 53 52
52 54 54 53 53 54 53 50 48 47 51 53 52 52 52 52 52 52 52 53 55 57 60 60 57 58 56 49 48 49 46 42 37 33 33 31 29 30 33 38 42 40 37 38 39 37 35 34 35 36 37 38 40 42 44 46 48 49 51 53 54 54 52 51 51 50 48 47 44 41 41 44 47 49 49 50 50 51 51 52 53 54 55 55 54 52
52 53 53 54 55 55 54 53 52 52 53 53 53 54 54 54 53 53 54 54 56 59 61 60 56 58 59 53 52 53 48 45 43 40 39 37 34 32 32 36 41 41 38 36 36 35 34 35 37 38 39 41 42 44 46 48 49 51 53 55 54 52 49 48 49 48 46 44 41 39 41 45 50 51 51 52 53 53 53 54 55 56 56 55 54 53
50 51 53 53 52 52 54 54 54 54 54 54 54 55 55 55 54 55 56 57 60 62 60 58 57 59 61 56 52 53 50 49 49 47 47 45 40 33 31 33 36 39 38 36 33 33 35 37 38 40 41 43 45 46 48 50 52 54 54 54 52 50 48 47 46 45 45 43 41 40 42 47 52 54 54 54 55 55 55 56 56 56 55 54 54 54
49 51 52 51 51 51 51 52 52 54 54 54 54 54 54 55 56 58 59 59 63 63 59 58 58 61 64 59 56 55 53 52 51 52 54 50 44 35 30 30 30 31 37 41 39 36 38 39 40 42 43 44 46 48 50 52 54 55 54 53 51 49 47 46 45 44 43 42 41 41 43 49 54 56 56 56 56 56 56 56 56 56 55 55 55 55
51 51 51 52 51 50 50 50 51 51 52 52 53 53 54 56 58 60 61 62 64 63 59 59 62 66 65 60 57 56 55 55 54 56 60 55 47 37 29 27 28 30 37 43 44 42 41 42 43 44 45 46 48 50 52 53 54 54 54 53 52 50 48 46 45 43 42 42 43 43 45 51 56 57 57 57 56 56 56 56 56 55 56 56 56 56
55 54 53 53 51 49 50 50 51 50 50 51 53 54 54 56 59 61 62 64 64 63 60 62 66 67 63 58 57 56 55 57 57 56 60 59 51 41 33 30 32 34 37 41 44 46 45 45 45 46 47 47 49 50 51 53 54 55 55 55 53 51 49 47 45 43 41 42 45 46 47 52 56 58 57 57 56 55 56 56 56 56 57 57 57 57
56 56 55 55 53 52 52 51 50 51 52 53 52 53 57 59 60 60 61 63 64 64 62 65 68 64 60 57 56 56 56 57 57 55 55 57 53 47 39 33 31 32 35 39 44 46 46 46 46 47 48 48 49 51 52 53 55 56 57 56 55 53 49 47 45 44 42 43 45 46 48 53 56 57 57 56 55 54 55 56 57 58 58 58 59 59
55 56 55 57 57 55 55 54 53 54 56 56 55 55 57 57 56 58 60 61 63 66 66 67 69 63 60 59 56 58 59 57 57 56 54 54 53 49 41 33 32 34 36 39 43 46 46 46 46 48 49 50 51 52 53 54 56 57 58 58 57 53 49 46 46 46 45 44 45 45 48 53 55 56 56 55 54 54 55 57 58 59 59 59 60 60
57 57 54 57 58 56 56 56 55 56 57 58 59 59 57 54 54 57 60 60 62 67 67 66 68 65 61 58 55 56 58 57 58 58 57 56 53 48 41 37 37 39 39 40 43 46 48 48 49 50 52 53 54 54 54 54 56 58 59 59 57 52 49 48 49 49 47 45 45 45 47 52 55 55 55 55 54 54 56 58 59 60 61 61 61 61
60 59 54 54 57 56 57 56 55 56 57 59 58 57 56 57 59 59 61 61 62 67 67 65 68 67 61 58 55 56 57 56 57 59 58 57 54 50 45 42 42 42 42 42 44 47 49 50 51 52 53 54 55 55 55 56 57 59 59 58 55 52 50 51 51 51 47 44 44 45 48 53 54 54 55 55 55 55 57 58 60 61 61 61 62 62
61 62 56 54 57 57 57 57 57 56 55 54 52 51 54 58 61 62 63 63 63 67 69 65 65 64 60 58 57 59 60 60 60 60 59 58 56 54 50 46 46 45 44 43 44 46 48 49 50 50 51 52 53 54 56 57 58 58 57 56 54 52 52 52 52 51 48 44 44 46 49 53 54 54 54 55 56 56 57 59 60 61 61 62 63 61
61 61 59 57 57 57 56 58 59 56 52 50 49 50 53 55 59 62 63 63 64 67 69 65 63 63 60 59 60 60 61 63 63 62 62 62 62 60 54 51 51 50 47 45 44 46 47 48 48 48 48 49 51 54 56 57 58 56 55 55 54 54 53 52 51 51 50 47 46 47 50 54 55 55 55 56 56 57 58 59 59 60 62 62 61 59
64 64 63 61 59 59 60 61 59 55 53 54 55 55 56 57 59 61 62 63 64 67 68 65 65 66 64 64 65 64 65 66 64 62 62 62 65 65 60 57 55 52 50 48 47 47 47 45 45 45 47 49 52 54 56 56 56 55 55 56 57 56 54 52 52 52 53 51 48 49 52 55 56 56 56 56 57 58 58 58 59 61 61 60 59 59
70 70 68 66 65 67 67 64 63 63 63 64 64 63 62 62 61 62 65 65 66 68 67 65 68 70 69 69 69 68 69 69 66 64 63 63 66 67 63 60 58 54 53 52 50 49 47 45 45 47 49 51 53 54 55 55 55 55 57 58 59 57 55 53 53 54 55 53 51 51 54 56 57 58 58 58 58 58 58 59 60 60 59 59 59 61
73 74 74 73 73 73 70 68 69 71 71 72 71 69 67 67 66 68 71 69 68 69 67 67 74 75 70 70 70 70 73 74 73 70 67 66 67 67 64 61 57 55 54 53 52 51 50 48 50 53 53 54 55 55 54 55 56 57 58 59 59 58 56 55 55 56 56 55 54 54 56 58 59 59 59 59 59 59 59 60 59 59 58 59 61 63
73 75 76 77 77 74 72 72 74 75 77 77 75 72 70 70 70 70 71 69 68 69 68 73 81 80 72 70 71 71 74 77 76 73 70 67 66 67 67 62 57 54 52 52 52 54 54 54 56 58 56 56 56 55 55 57 58 59 59 59 60 59 58 57 58 58 57 57 57 57 58 59 60 61 61 61 61 60 60 60 59 59 59 60 62 64
71 72 73 73 72 71 71 72 75 76 76 75 72 69 67 66 65 65 66 66 68 69 69 76 84 81 74 71 73 73 74 73 72 71 69 66 65 67 66 61 57 54 52 53 55 58 60 61 63 62 60 57 57 57 59 61 61 61 61 60 60 60 59 59 59 59 58 58 59 59 60 61 62 62 62 62 62 62 61 61 60 60 61 62 64 65
68 70 72 71 70 69 68 69 70 69 69 69 67 65 64 63 62 62 62 65 68 70 72 77 81 79 75 73 74 74 74 72 70 68 67 66 65 63 61 59 59 59 59 61 62 63 64 66 66 66 64 61 60 62 64 65 64 63 62 60 60 60 60 59 59 59 59 59 59 61 62 62 62 63 63 63 63 62 62 61 61 61 62 64 65 65
65 67 67 68 69 69 69 68 65 64 67 68 66 65 64 64 63 63 66 69 71 74 78 80 80 80 78 74 72 71 70 68 66 65 64 62 59 57 59 63 65 65 66 67 67 67 67 67 67 66 65 63 64 66 67 65 64 63 61 60 60 60 59 59 59 59 59 59 60 61 62 62 63 63 64 64 63 63 62 61 61 62 63 64 65 64
62 62 59 59 62 63 63 63 61 61 65 67 67 66 65 66 66 67 72 74 73 78 83 80 77 79 77 70 67 66 64 63 62 60 58 56 55 58 63 66 67 67 69 69 68 68 67 66 66 66 65 66 66 64 63 61 60 60 59 59 59 58 57 58 58 58 58 59 60 61 62 63 63 63 64 64 64 63 62 61 62 63 63 64 63 62
63 63 58 57 61 62 61 61 60 60 61 62 64 65 65 66 68 70 73 73 71 76 81 76 73 75 72 67 64 61 60 61 60 58 58 58 61 62 63 64 66 67 68 69 68 67 66 66 66 65 65 64 61 57 56 56 56 56 56 57 56 57 57 58 58 58 58 60 61 63 63 64 64 64 65 65 65 64 62 62 62 62 61 61 60 59
65 66 59 57 61 62 62 63 62 63 64 62 61 61 61 62 65 69 72 72 71 75 76 73 73 73 70 66 64 62 61 62 62 62 64 64 64 62 62 64 66 66 67 69 67 65 64 63 63 63 62 60 57 55 54 54 54 54 55 56 57 58 59 59 59 59 60 62 63 64 64 64 64 65 65 65 64 62 61 60 59 58 58 58 57 58
70 67 58 56 62 64 62 63 65 66 68 67 65 63 60 61 65 68 68 67 68 72 73 72 74 76 74 70 67 66 67 68 68 68 68 67 67 66 66 67 67 66 66 65 63 60 60 61 61 60 59 58 57 56 55 55 56 56 58 59 59 59 59 60 60 62 63 64 64 65 64 64 63 63 64 63 60 58 56 55 55 55 56 57 59 61
77 73 68 67 74 75 68 66 70 73 74 77 75 68 64 64 66 66 63 63 66 70 73 76 78 79 76 71 70 70 71 70 69 68 68 68 69 68 66 65 64 62 59 57 57 57 58 60 61 60 60 60 59 58 58 59 60 61 61 61 60 59 60 61 63 64 65 65 65 65 64 63 62 62 61 58 55 52 51 52 54 56 58 60 63 64
89 88 86 86 91 91 85 82 84 84 85 88 83 72 67 67 67 68 68 67 68 70 74 77 79 77 74 70 69 68 66 65 63 62 63 65 66 64 60 58 56 53 52 52 54 57 58 59 59 59 59 58 58 58 60 62 63 63 62 61 60 60 62 63 64 65 65 65 65 65 64 63 61 59 56 53 52 52 53 54 56 59 61 63 64 66
89 88 88 88 90 91 89 88 87 84 87 92 86 76 76 77 76 77 78 77 75 74 75 77 78 75 70 65 64 64 63 62 60 57 57 59 59 58 57 54 50 48 50 52 53 54 54 54 54 54 53 53 56 58 60 62 62 61 61 60 60 61 62 62 62 62 61 61 62 63 62 61 59 57 55 54 55 55 57 58 60 61 62 62 64 66
81 81 83 84 84 85 85 83 84 88 93 97 93 88 88 89 88 89 90 88 84 80 78 79 76 70 65 61 61 63 63 61 57 54 53 54 54 55 54 53 50 51 53 55 56 56 55 55 55 54 54 54 57 59 61 62 62 61 61 60 60 60 59 58 58 57 56 57 59 60 60 59 59 59 59 60 61 61 61 61 61 61 60 61 64 66
80 80 81 81 83 84 83 84 88 91 92 92 89 89 91 93 93 94 96 96 91 83 80 79 77 73 70 67 65 64 63 63 63 61 57 55 56 58 57 55 57 62 64 65 66 66 66 64 63 61 60 59 59 61 63 64 64 63 62 61 60 59 58 58 58 58 58 58 59 60 61 63 64 64 65 64 64 63 62 61 60 59 58 60 63 64
77 77 76 77 79 80 81 84 86 87 87 87 85 86 89 90 88 87 91 95 91 83 80 82 82 82 80 76 73 72 73 74 76 76 71 65 63 64 65 67 69 71 71 72 72 70 68 67 65 63 62 62 62 63 65 66 67 65 63 62 62 62 62 63 64 63 62 62 63 64 65 65 66 66 65 64 62 62 61 61 59 58 58 60 62 62
78 79 78 81 84 85 85 89 90 90 93 91 87 85 84 82 78 78 83 88 85 79 80 83 84 84 84 81 79 79 80 80 81 83 81 77 75 74 77 80 80 76 75 76 75 71 69 68 67 66 65 65 65 66 67 69 70 70 69 68 68 69 70 70 68 66 65 65 65 66 66 67 67 66 64 62 60 61 61 60 59 59 60 61 61 62
87 86 86 89 92 90 89 92 93 94 95 91 85 81 77 74 72 73 81 89 86 78 76 75 73 74 75 76 75 76 78 80 81 81 79 78 79 80 83 86 86 84 81 79 77 75 73 72 71 69 67 66 67 69 70 71 72 73 74 75 75 75 73 70 67 66 66 66 66 66 67 68 67 64 61 59 60 61 61 60 61 62 62 62 62 64
93 92 93 93 93 91 90 92 94 93 92 88 84 81 77 76 75 76 84 90 84 77 75 72 69 69 71 72 73 74 77 80 82 83 81 80 81 82 83 85 85 82 79 75 74 74 73 73 73 71 69 68 69 72 73 73 74 76 77 77 75 71 67 66 66 66 66 65 65 66 67 65 62 59 57 58 59 60 61 62 64 65 65 64 63 65
89 89 91 93 93 92 91 92 93 92 90 87 84 79 75 73 75 79 84 82 76 74 75 74 73 75 76 77 77 78 81 84 85 85 84 82 81 80 78 77 76 73 69 68 70 71 71 72 72 71 69 67 66 67 70 71 72 73 72 70 66 63 63 65 66 67 67 66 66 65 62 58 55 55 56 58 59 61 64 66 66 67 67 65 63 63
84 85 88 90 90 90 91 95 96 94 90 86 81 76 73 73 76 81 81 77 76 79 80 80 81 84 84 84 83 84 84 84 82 81 79 78 77 74 71 69 68 65 63 64 68 72 73 72 71 70 67 64 61 61 63 64 64 64 64 63 61 63 66 68 69 69 71 70 67 62 57 54 54 56 58 60 63 65 68 69 68 66 64 62 61 61
80 82 85 84 82 82 84 88 90 90 90 88 84 81 79 77 77 78 78 77 79 82 82 82 83 84 85 86 86 85 84 81 79 78 76 74 71 68 66 65 65 64 63 64 67 70 71 72 72 69 65 62 60 60 61 61 61 61 62 63 63 65 69 70 71 71 72 71 67 60 56 56 59 61 64 66 69 69 69 69 67 64 61 60 59 58
80 81 84 83 81 81 82 82 79 76 75 74 74 75 77 78 79 80 82 83 82 83 83 84 85 86 88 89 88 86 84 81 80 77 74 71 69 66 64 63 63 64 65 65 67 68 69 71 71 68 62 58 58 60 60 61 61 63 65 65 65 68 70 71 71 71 70 68 62 58 58 62 66 69 71 73 73 71 68 66 64 62 60 59 57 58
88 86 87 87 87 88 89 87 82 77 73 69 69 71 75 79 82 84 84 84 85 85 85 84 84 85 85 85 85 83 81 79 77 74 72 71 70 68 67 66 66 66 67 67 66 67 68 69 70 69 68 66 65 65 66 66 65 67 69 69 69 71 72 71 71 70 67 62 58 61 66 71 73 75 74 72 70 67 64 62 61 61 60 58 57 59
90 89 91 94 96 97 96 92 89 86 84 83 84 85 85 85 87 87 87 87 88 87 86 85 83 80 77 75 74 74 72 71 70 69 68 67 66 66 67 68 67 65 64 63 63 64 66 67 68 69 71 74 74 74 75 74 72 73 74 72 70 68 68 69 68 64 60 59 64 70 75 77 77 76 73 69 67 64 62 62 63 62 59 58 58 59
82 82 85 89 92 93 94 93 91 88 86 85 86 88 88 88 89 90 90 90 87 85 84 81 77 72 68 67 68 70 70 67 65 64 63 61 61 62 63 63 60 57 57 60 61 62 62 62 61 62 64 69 72 74 75 75 74 76 78 77 73 68 66 64 63 60 61 67 73 75 77 78 78 76 72 69 67 65 65 65 64 61 59 59 60 61
78 78 82 85 86 85 85 86 86 85 85 85 86 86 85 85 85 85 85 86 86 85 81 75 70 69 70 73 75 74 70 66 64 63 62 61 60 60 61 61 59 58 59 60 61 61 60 61 63 64 65 66 68 70 71 72 73 76 78 78 75 72 67 63 62 64 69 74 76 76 78 80 80 77 74 71 69 68 68 67 64 61 60 60 62 64
82 81 82 84 86 87 87 87 88 90 91 90 88 84 81 80 77 72 68 68 68 68 66 63 64 69 74 75 71 66 64 64 64 65 66 66 66 67 67 67 66 65 65 64 64 67 69 71 72 72 71 71 71 72 74 73 73 76 78 78 76 74 71 68 67 70 74 77 78 79 80 82 82 80 77 74 72 71 70 68 64 62 62 62 65 66
88 88 88 88 89 89 87 86 87 90 93 94 92 88 85 84 82 76 70 67 66 66 67 67 68 69 70 68 65 65 68 71 71 72 75 75 74 74 75 75 75 74 74 75 77 80 83 84 83 81 79 77 75 76 77 76 76 78 80 79 78 76 72 70 70 73 77 80 82 82 83 84 85 83 80 77 76 74 72 70 66 64 64 65 67 68
85 88 91 93 96 98 96 93 91 90 91 94 97 99 100 101 102 101 97 94 93 94 95 94 92 91 90 89 90 92 94 93 91 90 91 89 86 85 85 85 86 87 88 90 92 93 93 93 91 87 84 81 79 78 78 79 80 81 82 82 81 78 75 74 75 77 81 84 84 84 86 88 89 87 83 81 79 77 75 72 69 66 66 67 69 69
Wind_Direction
277 278 278 283 291 290 285 282 281 282 282 283 283 282 284 285 286 290 287 284 285 284 283 284 284 283 283 283 283 282 279 278 279 279 277 276 275 275 277 278 279 279 281 283 285 285 286 288 289 289 290 290 291 291 290 290 290 289 289 288 289 290 292 292 292 293 297 301 302 302 300 297 295 293 292 290 287 285 283 282 281 281 280 280 281 282
277 275 278 286 288 282 279 280 281 283 283 283 284 284 283 284 287 288 284 283 284 283 282 283 281 281 282 283 284 285 283 280 277 274 275 277 278 278 277 274 275 278 282 284 285 285 286 287 287 288 289 289 289 289 289 288 288 287 287 288 289 291 291 292 292 294 297 300 302 302 300 297 295 294 293 291 288 286 285 284 283 283 282 282 283 283
276 275 279 284 281 277 277 279 280 282 283 284 286 286 284 286 290 288 284 283 282 281 282 283 281 281 282 283 284 285 283 280 276 273 274 277 278 276 274 273 276 279 282 283 284 284 286 287 287 288 288 287 287 287 287 287 286 287 287 288 289 290 291 292 293 295 298 300 301 301 300 297 295 294 292 290 287 287 286 286 286 286 285 285 285 285
275 276 278 278 276 277 278 278 277 277 280 283 284 283 285 289 291 288 286 284 282 282 282 283 282 281 282 284 284 282 280 277 276 277 278 277 275 273 272 276 280 281 281 282 283 284 286 287 287 287 286 286 286 285 286 286 286 286 287 288 289 291 293 294 295 296 298 299 299 299 298 296 294 293 290 288 286 286 287 288 289 289 288 288 288 289
272 275 276 276 277 277 277 276 275 276 278 280 280 280 284 288 288 286 287 286 284 283 283 284 283 282 283 285 283 280 275 275 276 279 279 277 275 274 274 277 279 279 279 280 282 284 285 286 286 286 285 284 285 285 285 285 285 286 287 289 291 293 294 295 295 296 297 297 297 297 296 294 292 290 288 285 284 286 289 290 290 290 290 290 290 289
269 270 273 276 277 276 275 274 274 276 278 279 278 280 283 285 284 284 285 285 285 284 285 284 283 284 286 284 284 281 275 274 274 274 274 274 274 275 276 277 277 279 280 282 284 285 284 283 283 282 282 283 284 285 286 286 287 287 288 290 292 293 294 294 295 295 296 297 297 296 294 292 289 287 285 283 284 287 290 290 290 290 290 289 288 287
269 270 273 275 275 275 274 273 275 278 278 277 277 280 282 282 282 282 282 282 283 285 285 283 283 287 288 287 287 285 281 278 274 272 274 276 278 279 280 280 280 281 282 283 285 286 285 282 281 280 282 285 286 286 287 288 288 288 289 290 291 292 294 294 294 295 296 297 296 294 292 289 286 285 284 284 285 288 289 289 289 289 288 288 287 286
271 273 274 274 273 273 272 274 277 277 276 276 278 280 280 280 280 280 280 280 281 283 282 281 283 287 291 294 292 288 285 281 279 279 280 280 282 285 286 287 286 285 284 283 284 285 285 283 282 283 285 285 286 287 287 286 285 286 287 288 290 293 294 295 296 296 297 297 294 290 288 286 285 284 284 285 287 288 288 288 288 288 287 287 286 284
274 274 274 274 273 272 272 274 275 274 275 276 278 279 279 280 280 279 279 279 280 280 278 278 282 285 290 294 293 289 286 286 286 285 283 281 284 288 289 289 289 288 286 285 283 283 283 283 284 285 285 284 283 283 282 282 282 283 286 288 291 293 295 296 296 297 298 294 289 285 285 285 284 284 285 286 287 287 287 287 287 286 286 285 284 283
276 276 276 275 273 273 274 273 273 273 274 274 275 276 278 278 278 278 278 278 278 276 275 278 282 285 288 290 287 286 288 291 291 289 287 285 286 288 290 289 288 288 288 285 282 282 282 283 284 284 283 281 280 278 278 279 280 283 286 289 291 293 294 296 296 296 296 290 283 282 284 285 284 284 284 285 286 286 285 285 285 284 284 283 282 282
276 276 276 276 277 276 275 273 272 272 272 273 274 275 276 276 277 277 276 276 275 273 275 280 284 285 286 286 285 286 289 290 291 292 290 289 289 292 294 291 287 289 291 288 285 285 284 283 282 282 279 277 276 276 277 278 281 284 287 289 291 293 294 295 295 294 292 286 280 280 284 284 283 283 284 284 285 284 284 283 283 283 282 281 281 283
275 274 274 276 277 276 275 275 274 273 272 273 273 274 275 275 275 274 273 273 272 274 278 282 283 282 281 283 287 289 290 291 293 294 291 289 292 297 299 294 288 288 289 290 292 291 287 284 280 278 276 274 275 276 278 280 283 286 288 290 292 293 295 295 295 293 289 283 278 279 285 285 283 282 283 283 284 283 283 283 283 282 281 281 282 285
273 272 273 273 273 275 277 277 276 274 273 272 271 271 272 272 272 271 271 271 271 275 279 281 281 279 278 281 285 287 291 293 293 293 291 293 296 299 302 297 291 287 285 288 292 290 286 282 278 277 276 276 277 279 280 283 286 289 290 292 293 294 296 295 294 292 288 283 278 279 284 285 282 282 282 283 283 283 283 283 283 282 282 283 285 287
273 272 272 274 275 276 276 274 274 273 272 270 268 267 267 268 269 270 271 273 274 277 279 279 277 276 279 283 286 287 289 289 288 289 292 295 298 301 305 301 294 288 285 286 286 285 282 280 279 279 279 280 281 282 283 286 288 290 291 292 293 294 296 295 293 291 288 285 280 280 283 284 282 282 282 283 283 283 283 283 282 282 284 285 287 289
276 275 273 276 276 273 272 272 272 272 271 270 268 265 264 265 266 269 272 275 277 278 278 276 275 277 282 286 288 289 287 286 288 290 291 294 298 303 306 305 299 293 288 284 282 282 282 281 282 282 282 283 283 283 285 287 289 290 290 291 292 294 295 294 292 290 289 286 282 280 282 283 282 281 282 283 284 284 283 283 282 283 285 287 289 291
279 276 273 275 274 272 271 270 269 269 270 271 270 266 266 268 268 269 272 273 275 276 276 276 276 279 283 285 287 287 286 288 290 291 291 292 296 300 303 304 302 297 290 285 283 284 284 284 284 283 283 283 283 283 284 286 287 287 288 289 292 294 296 294 292 292 292 290 284 280 280 281 280 281 282 283 284 285 284 283 283 285 287 289 291 292
277 274 272 274 275 273 271 270 268 268 269 270 270 270 273 273 271 269 270 271 271 272 275 278 279 280 282 283 283 282 284 288 289 290 291 292 295 298 299 301 299 296 292 287 284 284 284 284 284 283 283 283 283 283 283 284 284 285 286 289 292 295 296 295 294 294 294 292 287 281 279 279 280 281 282 284 285 285 284 284 285 287 290 291 293 294
277 275 271 272 275 274 272 270 269 268 267 267 269 273 275 274 272 270 269 270 269 271 275 277 278 280 282 283 284 284 284 285 286 287 288 291 294 295 296 298 297 295 292 286 283 282 283 282 282 281 280 280 280 281 281 282 282 283 286 290 293 296 297 296 295 295 295 292 288 283 280 280 280 281 282 284 285 285 285 286 287 289 291 292 294 294
278 276 273 273 274 273 272 270 268 266 266 268 271 273 273 272 273 271 269 271 271 271 274 276 277 279 280 282 285 285 285 285 285 286 288 291 294 294 295 297 297 296 293 287 284 283 283 281 280 279 277 276 276 277 278 279 281 283 287 290 293 295 295 295 294 295 295 292 289 286 282 281 281 282 283 284 285 286 287 287 288 290 291 292 293 292
278 275 272 272 273 271 270 268 266 267 269 272 271 269 268 269 271 271 271 272 272 271 273 275 277 279 280 282 282 282 283 284 285 288 292 295 296 295 296 298 297 296 292 287 285 283 281 280 279 277 274 273 273 274 275 278 281 285 288 290 292 293 293 292 293 295 295 293 291 288 284 282 282 283 283 284 286 286 287 288 289 290 290 291 291 290
276 273 271 271 269 267 267 266 267 268 269 269 268 267 267 268 269 270 270 271 272 272 273 274 276 278 278 279 279 278 279 280 284 288 291 293 294 295 297 298 297 294 290 286 284 280 277 276 275 274 273 273 272 273 275 279 283 286 288 289 290 291 291 291 293 294 295 294 292 289 286 284 283 284 284 285 286 286 286 287 288 289 290 290 289 288
276 275 273 270 268 268 269 268 268 267 267 267 267 266 266 267 268 269 270 271 273 272 272 274 275 275 275 275 276 278 279 281 283 285 287 289 290 292 295 295 294 293 290 287 284 279 274 273 273 272 272 273 273 274 276 279 283 285 286 287 289 290 291 291 292 293 293 293 293 290 287 285 284 284 284 285 286 285 286 287 287 288 289 289 288 288
277 275 272 271 272 272 271 270 268 267 267 266 265 266 266 267 268 269 271 273 273 271 272 273 272 272 273 274 277 280 282 284 284 285 288 290 291 292 292 291 290 290 288 285 282 278 274 273 273 273 273 274 274 276 277 279 281 283 284 285 288 290 290 289 290 291 291 291 291 289 287 286 284 283 284 285 285 285 286 286 287 288 288 287 287 288
276 273 272 273 274 272 271 270 268 267 267 267 268 270 272 272 272 271 271 272 271 269 271 270 268 271 275 276 278 280 280 282 285 288 290 291 292 292 291 290 291 289 285 282 279 277 276 275 275 276 276 274 275 279 281 283 283 283 284 286 288 289 289 288 290 291 289 288 289 289 287 286 284 283 283 284 284 285 285 287 288 287 286 286 287 288
274 273 272 272 270 269 269 269 269 269 270 271 273 274 274 273 272 270 269 269 267 266 266 266 266 271 277 279 279 280 280 282 285 288 290 290 290 288 289 292 292 289 284 279 277 278 280 280 280 280 279 276 277 281 285 287 287 285 285 285 286 287 287 287 288 289 288 287 288 288 288 287 285 283 283 283 284 285 286 287 286 286 286 286 287 288
271 271 270 268 267 266 267 268 270 272 271 271 271 271 269 268 266 266 266 266 266 267 266 265 268 274 278 278 279 281 283 285 286 286 287 287 286 286 289 290 288 286 284 281 280 280 281 282 282 282 280 278 280 285 288 289 288 286 284 283 283 284 285 286 287 287 287 286 286 287 288 287 286 284 283 283 284 284 285 285 284 284 285 285 286 288
268 268 267 267 267 267 268 268 269 268 268 268 268 267 266 264 262 263 263 264 267 271 270 269 272 277 278 278 280 282 283 283 283 283 282 282 283 284 285 285 284 285 284 282 281 281 281 282 281 279 279 281 285 288 289 287 286 284 282 281 282 284 285 286 287 287 286 285 285 286 287 287 286 284 282 282 283 283 283 283 283 284 284 285 286 287
265 265 264 265 265 265 266 267 265 263 264 265 265 263 263 262 262 262 264 266 270 272 272 272 274 276 278 281 282 281 280 280 279 278 278 277 277 278 280 281 282 283 283 281 280 280 280 279 278 279 282 285 287 287 286 284 282 281 281 282 283 284 285 285 286 286 285 285 285 285 286 286 285 284 282 282 281 281 281 282 282 283 284 285 286 287
264 267 267 268 268 266 264 263 261 259 258 257 258 259 261 262 262 264 266 269 271 271 271 274 275 276 279 281 281 280 279 278 276 276 275 274 275 277 279 280 280 281 279 278 276 276 277 277 280 283 285 285 285 283 281 281 281 281 282 283 283 284 285 285 285 284 284 284 284 284 284 285 285 284 282 281 280 280 280 281 282 284 284 286 288 291
266 271 273 275 275 273 270 268 265 262 258 255 255 258 261 263 263 264 267 269 271 272 274 277 278 277 278 279 279 279 278 276 275 275 277 278 279 280 280 279 278 276 273 272 273 274 277 279 281 282 282 281 280 279 279 282 283 283 283 283 284 285 285 284 284 283 283 283 282 283 283 284 284 283 282 280 279 278 279 281 282 284 286 288 292 294
269 272 272 273 274 273 272 271 269 268 267 264 260 260 262 262 261 262 266 270 273 274 275 277 277 276 276 278 280 279 279 279 279 281 282 283 282 281 280 277 274 271 270 273 276 278 278 279 278 278 278 278 278 280 284 286 286 285 284 285 285 285 285 284 283 282 281 281 281 282 283 283 282 281 280 278 277 277 279 280 282 286 288 291 294 296
270 271 271 271 273 273 272 273 273 274 274 273 268 264 262 261 261 265 270 273 274 275 275 275 276 276 278 280 281 281 282 284 285 286 286 285 282 281 278 273 270 269 272 275 277 277 276 276 276 276 277 278 281 285 288 288 287 287 286 285 284 284 283 283 282 281 280 280 281 281 281 280 279 278 277 275 276 277 280 282 284 288 291 293 295 297
271 272 272 273 275 275 274 275 278 278 277 275 272 269 267 267 268 272 275 276 277 278 279 279 279 281 284 285 285 285 286 286 288 289 287 282 279 275 269 263 264 268 270 271 271 272 274 275 276 277 278 282 286 288 288 288 287 286 284 283 282 282 281 281 280 280 280 281 281 281 280 279 277 276 274 274 276 278 281 284 287 291 293 296 298 299
274 275 275 275 277 278 277 277 279 277 274 274 275 274 273 274 274 275 276 278 279 279 279 280 282 283 285 287 287 286 285 285 287 287 282 274 270 266 260 257 262 268 268 267 268 271 274 276 278 279 282 285 286 286 285 285 283 281 280 280 280 279 278 278 279 280 282 283 283 283 281 280 278 276 275 276 279 282 284 287 290 292 294 297 300 301
276 277 277 277 277 278 278 277 276 273 274 277 278 277 276 276 276 277 278 278 278 277 277 278 280 280 281 282 282 282 283 285 284 280 272 267 267 267 262 260 265 269 268 269 272 275 277 278 279 281 283 284 284 283 283 280 278 277 277 277 276 277 277 278 280 282 283 283 283 282 281 280 279 279 279 281 282 285 287 289 291 293 295 298 301 300
274 275 276 276 276 277 277 275 273 274 277 278 277 277 278 279 279 280 281 280 279 279 277 275 273 273 275 277 278 279 282 283 280 275 270 267 270 271 269 269 275 277 276 277 280 281 281 280 280 279 279 279 280 281 280 277 274 273 273 273 273 276 278 280 281 282 281 279 280 281 280 280 280 281 281 282 283 286 288 290 293 296 298 300 299 297
273 274 275 275 275 276 276 275 276 277 277 275 275 278 281 282 282 283 283 281 280 278 275 273 272 272 273 274 275 277 279 279 277 274 273 272 272 272 272 274 279 282 282 282 284 283 282 280 280 278 277 276 276 276 275 274 272 271 271 271 273 274 276 278 279 279 278 278 279 280 280 280 280 280 280 281 283 286 289 291 294 298 301 301 298 295
272 273 274 275 276 276 276 276 277 276 276 277 280 282 284 284 284 285 284 282 279 277 276 276 275 274 273 273 274 276 278 278 276 274 274 273 273 272 272 274 278 281 281 281 281 280 279 278 278 278 277 275 272 271 271 271 271 271 272 273 274 274 275 277 278 277 277 278 278 279 279 279 278 278 279 281 284 287 289 292 296 299 301 301 299 298
270 271 272 274 275 275 275 275 276 276 279 282 284 284 285 285 287 288 284 280 279 281 282 283 281 277 276 276 277 278 279 279 278 277 276 274 272 271 271 272 275 277 278 278 277 276 275 275 276 277 276 272 270 269 268 269 270 271 272 273 274 275 276 277 276 276 277 278 278 278 278 277 276 276 278 281 285 287 288 292 297 300 301 302 301 299
271 272 273 273 274 274 274 275 276 277 280 282 283 284 285 286 287 283 278 277 282 286 286 285 282 278 276 276 275 276 277 278 279 278 277 275 273 272 271 271 272 274 275 274 272 271 272 272 274 275 273 269 267 266 266 267 267 268 270 272 274 276 277 276 275 275 275 274 274 274 274 273 274 276 279 283 285 287 290 294 298 300 301 301 301 299
271 272 272 272 272 273 273 275 276 278 278 279 281 284 284 282 278 274 273 279 285 286 283 280 278 276 275 274 273 272 272 274 275 275 276 277 276 274 271 268 267 267 267 267 268 268 269 269 270 269 268 266 264 264 265 265 266 267 269 271 274 275 275 275 276 276 273 270 269 269 269 272 277 281 283 285 287 291 293 296 298 299 299 299 298 296
269 269 270 270 271 272 273 274 276 277 278 279 280 281 281 279 275 273 274 277 277 275 274 274 274 275 275 275 274 274 275 275 275 276 277 278 277 276 273 269 265 262 259 259 261 263 264 265 265 264 264 263 264 265 266 266 267 269 270 272 274 275 275 276 276 275 272 270 268 268 270 278 286 290 290 290 292 294 296 297 297 297 297 297 296 295
265 267 268 270 271 273 273 274 275 277 278 278 277 276 275 276 275 275 274 274 273 273 273 272 271 272 273 273 274 275 275 275 276 276 276 275 275 275 273 271 269 266 263 261 261 261 263 264 264 263 263 262 262 264 265 266 268 270 271 272 274 273 273 274 273 272 271 269 268 270 276 284 291 294 295 296 296 297 296 296 296 295 295 294 294 294
261 263 266 266 267 268 270 271 272 274 276 277 276 274 272 271 272 273 274 275 274 274 273 272 272 272 273 273 274 273 273 273 274 274 273 271 271 271 270 269 268 267 267 267 267 267 267 267 266 265 264 264 265 266 267 269 271 273 273 274 274 273 272 272 270 269 267 265 267 273 282 289 293 295 297 298 298 297 296 294 294 294 294 292 292 294
261 260 261 262 262 263 265 266 267 268 270 271 273 273 274 274 274 274 275 274 274 274 273 272 272 272 272 272 272 271 271 271 270 269 268 269 269 269 268 267 267 267 266 267 267 267 266 266 266 267 268 268 268 269 271 274 275 275 274 273 272 271 270 268 265 263 261 263 271 281 288 293 295 297 298 298 297 296 295 294 294 294 292 290 291 295
261 261 261 261 261 262 262 263 263 265 266 267 268 270 271 272 272 271 271 272 272 272 271 271 270 270 269 268 269 270 269 268 266 266 266 267 267 267 266 266 266 266 267 267 266 265 264 265 267 269 270 270 270 270 273 275 275 273 271 268 265 263 262 259 257 257 261 271 282 290 293 295 297 297 297 297 296 296 295 295 294 292 289 288 290 295
258 260 261 261 262 263 263 262 262 264 265 265 266 268 269 270 270 270 270 270 268 266 264 264 264 263 262 264 267 270 270 268 266 264 264 265 266 265 264 263 262 264 267 269 268 265 264 265 268 271 272 272 272 271 272 273 271 269 268 265 261 257 255 255 256 262 273 283 289 292 294 296 297 297 296 296 295 294 294 294 293 289 286 286 289 295
255 255 256 257 258 259 260 261 262 262 262 263 265 266 267 266 265 263 260 259 258 256 255 255 257 261 264 267 269 269 266 264 263 262 262 263 265 265 263 261 261 264 267 268 267 265 264 268 272 274 274 274 273 272 272 271 268 266 265 263 260 258 257 259 265 273 281 287 290 292 294 296 296 296 294 293 293 292 292 293 290 286 285 286 290 294
253 251 251 253 254 254 255 258 259 258 259 259 260 261 259 255 251 247 244 243 245 246 247 251 257 263 265 264 262 258 257 258 259 260 262 263 264 264 263 262 262 264 265 266 267 266 267 271 273 274 274 275 273 272 271 270 267 265 263 261 260 259 261 264 271 278 284 288 290 291 292 294 295 294 292 291 291 290 291 291 288 285 284 286 290 294
255 253 252 251 251 251 252 253 253 254 255 255 254 254 253 252 251 249 246 245 246 248 250 254 257 258 259 257 255 255 259 261 261 263 266 267 266 265 264 263 263 264 265 268 270 270 270 272 274 273 273 273 273 272 271 269 267 266 265 264 262 262 262 267 273 279 284 286 287 288 289 291 292 292 290 289 289 289 289 289 287 283 282 286 290 293
258 257 256 254 253 253 253 252 251 251 252 252 252 253 253 254 256 256 254 253 255 257 259 260 259 259 259 260 261 263 265 266 265 266 268 267 267 267 268 267 266 267 268 269 271 271 271 271 271 270 270 270 270 270 270 270 269 267 265 264 263 263 264 268 273 278 281 283 284 284 286 288 290 290 288 288 288 288 287 287 285 282 281 285 289 292
Height
5814 5811 5809 5815 5819 5818 5813 5810 5808 5807 5807 5806 5804 5803 5801 5799 5800 5805 5803 5796 5795 5791 5789 5791 5788 5787 5793 5796 5797 5799 5799 5798 5798 5797 5795 5797 5797 5796 5795 5793 5790 5788 5789 5789 5787 5785 5785 5785 5784 5783 5782 5781 5779 5778 5777 5776 5775 5774 5773 5772 5772 5772 5772 5772 5771 5770 5770 5768 5767 5766 5765 5764 5762 5762 5761 5759 5758 5757 5756 5755 5754 5753 5753 5752 5750 5749
5809 5805 5807 5814 5815 5812 5809 5806 5804 5802 5803 5801 5799 5798 5797 5796 5797 5800 5797 5793 5792 5786 5783 5786 5781 5780 5787 5791 5792 5794 5793 5793 5794 5792 5791 5793 5793 5792 5791 5788 5786 5785 5784 5784 5782 5780 5780 5781 5780 5779 5778 5776 5775 5774 5773 5772 5770 5769 5768 5767 5767 5767 5767 5767 5766 5766 5765 5764 5763 5761 5760 5758 5757 5756 5755 5754 5753 5752 5751 5750 5749 5748 5748 5746 5745 5744
5801 5799 5805 5811 5808 5806 5805 5803 5801 5799 5798 5796 5795 5792 5790 5793 5794 5792 5791 5789 5787 5782 5779 5780 5775 5774 5781 5785 5788 5789 5788 5787 5787 5788 5789 5789 5789 5789 5786 5783 5782 5782 5781 5780 5778 5776 5776 5776 5776 5774 5773 5772 5771 5769 5768 5767 5765 5764 5763 5763 5762 5762 5762 5762 5762 5761 5760 5759 5757 5756 5755 5753 5752 5751 5749 5748 5747 5747 5746 5745 5744 5743 5742 5741 5739 5738
5793 5794 5800 5803 5803 5801 5800 5799 5797 5795 5795 5793 5791 5787 5785 5790 5790 5785 5785 5783 5782 5778 5774 5774 5768 5767 5775 5780 5782 5785 5783 5782 5782 5783 5785 5786 5785 5784 5782 5779 5779 5779 5778 5776 5775 5772 5772 5772 5771 5770 5769 5767 5766 5765 5763 5762 5761 5760 5758 5758 5757 5757 5757 5757 5756 5756 5755 5753 5752 5751 5749 5748 5746 5745 5743 5742 5741 5741 5740 5739 5738 5737 5736 5734 5733 5731
5789 5790 5791 5795 5798 5797 5794 5793 5791 5791 5792 5789 5785 5784 5784 5787 5785 5781 5779 5776 5774 5773 5771 5769 5760 5758 5770 5775 5776 5780 5779 5778 5779 5779 5781 5781 5781 5780 5778 5777 5776 5774 5773 5772 5770 5769 5768 5768 5767 5765 5764 5763 5762 5760 5759 5757 5756 5755 5754 5753 5752 5752 5752 5752 5751 5750 5749 5748 5746 5745 5743 5742 5740 5738 5737 5736 5735 5734 5734 5733 5732 5730 5729 5727 5726 5725
5784 5785 5786 5790 5791 5790 5789 5787 5786 5786 5787 5784 5780 5781 5782 5782 5780 5777 5776 5771 5766 5766 5766 5764 5755 5750 5762 5770 5771 5773 5774 5775 5776 5776 5777 5777 5777 5776 5774 5773 5772 5770 5768 5767 5765 5765 5765 5764 5763 5761 5759 5759 5757 5755 5754 5752 5751 5749 5748 5748 5747 5747 5747 5746 5745 5744 5743 5742 5740 5739 5737 5735 5734 5732 5731 5730 5729 5728 5728 5726 5725 5724 5722 5721 5720 5719
5777 5780 5783 5785 5784 5784 5782 5780 5783 5783 5780 5777 5775 5777 5778 5777 5775 5773 5772 5767 5761 5760 5759 5756 5752 5746 5751 5761 5766 5766 5768 5770 5771 5772 5773 5773 5772 5771 5770 5769 5767 5766 5764 5762 5760 5760 5760 5759 5758 5756 5755 5754 5752 5750 5748 5747 5745 5744 5743 5743 5742 5742 5741 5740 5739 5739 5738 5736 5734 5732 5731 5729 5727 5726 5725 5724 5723 5722 5721 5720 5719 5717 5716 5715 5713 5712
5774 5776 5777 5779 5778 5777 5775 5776 5779 5778 5773 5771 5771 5773 5772 5771 5770 5768 5767 5764 5758 5757 5752 5748 5750 5746 5741 5750 5758 5758 5759 5762 5765 5767 5768 5768 5768 5766 5765 5762 5760 5760 5759 5757 5756 5755 5754 5754 5752 5751 5750 5749 5747 5745 5744 5742 5740 5739 5738 5737 5737 5736 5735 5734 5733 5733 5732 5730 5728 5726 5724 5723 5721 5720 5719 5718 5717 5716 5714 5713 5712 5711 5709 5708 5707 5705
5771 5770 5771 5772 5771 5770 5771 5772 5773 5771 5768 5767 5766 5766 5765 5765 5764 5762 5761 5759 5756 5751 5744 5743 5749 5747 5737 5740 5748 5746 5748 5754 5758 5761 5762 5763 5764 5763 5761 5757 5753 5753 5753 5751 5750 5750 5749 5748 5747 5746 5745 5744 5742 5741 5739 5737 5736 5734 5733 5732 5731 5731 5729 5728 5727 5727 5726 5724 5722 5720 5719 5717 5715 5714 5713 5711 5710 5709 5708 5706 5705 5704 5703 5701 5700 5699
5766 5765 5766 5765 5764 5765 5766 5766 5766 5764 5762 5762 5762 5759 5759 5758 5757 5757 5754 5753 5752 5744 5737 5740 5746 5744 5733 5734 5740 5738 5740 5746 5748 5752 5754 5755 5759 5759 5758 5754 5748 5746 5747 5746 5745 5744 5744 5743 5742 5741 5740 5739 5737 5736 5734 5732 5731 5730 5729 5727 5726 5725 5724 5723 5722 5721 5720 5718 5717 5715 5713 5711 5708 5707 5706 5705 5704 5703 5702 5700 5699 5698 5696 5695 5693 5692
5762 5760 5759 5758 5759 5760 5759 5759 5759 5758 5756 5756 5756 5754 5753 5752 5750 5750 5747 5746 5743 5736 5735 5739 5742 5740 5728 5723 5730 5733 5736 5739 5740 5743 5744 5745 5750 5753 5754 5750 5746 5742 5740 5740 5740 5740 5739 5738 5737 5736 5735 5733 5731 5730 5729 5727 5726 5724 5724 5722 5721 5720 5719 5718 5716 5715 5714 5712 5711 5710 5707 5705 5702 5700 5699 5699 5697 5696 5695 5694 5692 5691 5689 5688 5687 5685
5757 5754 5754 5754 5754 5753 5752 5753 5752 5752 5751 5751 5750 5748 5747 5746 5743 5741 5739 5739 5735 5730 5735 5738 5737 5735 5722 5716 5724 5728 5729 5731 5733 5733 5732 5735 5742 5746 5747 5745 5742 5741 5736 5732 5732 5733 5733 5732 5731 5730 5728 5727 5726 5725 5723 5721 5720 5718 5717 5716 5715 5714 5713 5712 5711 5709 5708 5707 5705 5704 5702 5699 5696 5694 5693 5692 5691 5689 5688 5687 5685 5684 5683 5682 5680 5679
5748 5748 5749 5748 5748 5749 5748 5747 5746 5745 5746 5745 5744 5743 5741 5738 5735 5732 5731 5731 5729 5729 5733 5733 5730 5722 5712 5713 5722 5724 5724 5725 5726 5725 5720 5724 5732 5738 5741 5740 5738 5737 5732 5727 5725 5725 5725 5724 5723 5723 5722 5721 5720 5718 5717 5715 5713 5712 5710 5709 5708 5707 5707 5706 5705 5703 5702 5701 5699 5698 5696 5692 5689 5687 5686 5685 5684 5682 5681 5679 5678 5677 5676 5674 5673 5671
5739 5741 5742 5741 5743 5745 5742 5740 5740 5739 5740 5738 5737 5736 5734 5732 5727 5724 5726 5725 5723 5726 5728 5726 5720 5710 5705 5711 5718 5721 5723 5720 5719 5721 5717 5716 5722 5729 5734 5734 5732 5731 5728 5724 5720 5717 5717 5716 5715 5715 5715 5714 5712 5710 5709 5707 5706 5704 5703 5702 5701 5701 5701 5699 5698 5697 5696 5694 5693 5691 5689 5686 5682 5680 5679 5678 5678 5676 5674 5672 5671 5670 5668 5667 5665 5664
5732 5733 5736 5735 5737 5738 5735 5735 5734 5732 5732 5730 5730 5728 5725 5725 5722 5719 5723 5721 5717 5719 5719 5715 5708 5703 5703 5708 5711 5713 5714 5713 5713 5715 5715 5713 5715 5720 5725 5727 5725 5724 5722 5719 5714 5711 5710 5709 5708 5708 5707 5706 5705 5703 5701 5700 5698 5697 5695 5694 5694 5694 5694 5693 5691 5690 5690 5688 5686 5685 5682 5679 5675 5673 5672 5671 5671 5669 5667 5665 5664 5662 5661 5659 5657 5656
5726 5726 5729 5726 5726 5730 5729 5729 5728 5725 5724 5723 5722 5719 5717 5720 5719 5716 5717 5717 5713 5710 5707 5703 5699 5699 5702 5704 5706 5705 5702 5705 5707 5707 5709 5710 5711 5714 5718 5720 5719 5717 5715 5713 5709 5706 5704 5703 5703 5701 5700 5699 5697 5696 5695 5693 5692 5689 5687 5686 5686 5687 5687 5686 5685 5683 5683 5681 5679 5677 5675 5671 5669 5666 5665 5664 5663 5662 5660 5658 5656 5655 5653 5651 5650 5648
5719 5719 5723 5719 5717 5721 5721 5721 5721 5718 5717 5716 5713 5712 5714 5716 5714 5709 5707 5710 5708 5701 5698 5698 5693 5694 5699 5697 5699 5701 5698 5700 5701 5699 5700 5702 5704 5709 5712 5713 5712 5710 5709 5707 5704 5702 5699 5698 5697 5695 5693 5691 5690 5689 5688 5686 5684 5681 5679 5679 5679 5679 5679 5678 5677 5676 5675 5674 5672 5670 5667 5664 5661 5659 5658 5657 5656 5654 5653 5651 5649 5647 5645 5643 5642 5640
5711 5710 5715 5714 5710 5712 5712 5712 5713 5711 5709 5708 5708 5710 5711 5708 5704 5701 5698 5700 5701 5694 5691 5694 5690 5689 5694 5690 5690 5694 5694 5695 5696 5694 5694 5695 5698 5701 5704 5705 5705 5703 5702 5700 5698 5696 5694 5692 5690 5689 5687 5684 5683 5682 5680 5678 5676 5673 5672 5672 5672 5672 5672 5670 5669 5668 5667 5666 5664 5662 5659 5656 5654 5653 5651 5650 5648 5647 5645 5643 5642 5640 5638 5636 5634 5632
5703 5699 5705 5709 5704 5703 5705 5704 5703 5702 5701 5702 5705 5706 5703 5698 5695 5693 5690 5691 5693 5688 5684 5688 5688 5686 5687 5687 5685 5686 5685 5686 5687 5687 5687 5689 5691 5693 5696 5697 5695 5695 5694 5692 5690 5688 5687 5685 5683 5681 5679 5677 5676 5674 5672 5669 5667 5667 5666 5666 5666 5665 5664 5663 5661 5660 5660 5659 5657 5655 5652 5649 5647 5646 5644 5642 5641 5640 5638 5636 5634 5633 5630 5628 5626 5624
5696 5688 5691 5699 5698 5696 5698 5697 5695 5696 5697 5697 5697 5697 5695 5692 5687 5684 5683 5684 5683 5680 5678 5682 5684 5681 5681 5683 5683 5681 5680 5678 5678 5679 5680 5681 5680 5682 5686 5688 5687 5687 5685 5684 5683 5681 5679 5677 5675 5673 5671 5670 5668 5666 5663 5661 5660 5661 5661 5660 5659 5658 5657 5655 5654 5653 5652 5651 5650 5648 5645 5642 5640 5638 5636 5635 5634 5632 5630 5629 5627 5625 5623 5621 5619 5617
5688 5680 5678 5686 5690 5688 5690 5691 5690 5692 5692 5688 5686 5687 5686 5685 5681 5676 5675 5677 5676 5672 5672 5675 5676 5674 5674 5676 5676 5675 5675 5674 5674 5677 5678 5676 5673 5673 5677 5679 5678 5678 5677 5675 5675 5673 5671 5670 5667 5665 5663 5661 5660 5657 5655 5655 5655 5655 5654 5652 5651 5650 5649 5648 5646 5645 5644 5643 5642 5640 5637 5635 5632 5630 5629 5628 5627 5625 5623 5622 5620 5618 5616 5614 5612 5610
5679 5673 5669 5671 5675 5679 5683 5686 5686 5685 5682 5678 5676 5677 5678 5677 5674 5669 5665 5670 5670 5663 5664 5667 5664 5663 5665 5666 5668 5669 5668 5669 5672 5674 5674 5673 5670 5669 5671 5671 5669 5669 5668 5666 5665 5664 5662 5661 5659 5657 5655 5653 5652 5651 5649 5649 5649 5648 5647 5645 5643 5642 5642 5641 5639 5637 5636 5635 5634 5632 5630 5627 5625 5623 5621 5620 5619 5617 5616 5614 5612 5610 5608 5606 5604 5601
5670 5664 5658 5658 5662 5669 5675 5678 5677 5673 5671 5668 5664 5668 5671 5669 5668 5663 5657 5663 5663 5654 5657 5659 5648 5649 5659 5662 5664 5665 5661 5659 5661 5664 5668 5667 5663 5661 5661 5662 5663 5662 5660 5658 5656 5654 5653 5653 5651 5649 5648 5646 5644 5644 5644 5643 5642 5641 5639 5638 5636 5635 5635 5633 5632 5630 5628 5627 5626 5624 5622 5620 5618 5615 5613 5612 5611 5609 5607 5605 5604 5602 5599 5597 5595 5593
5659 5652 5649 5649 5651 5655 5662 5666 5665 5662 5659 5655 5656 5663 5665 5660 5660 5657 5651 5655 5652 5644 5650 5646 5628 5635 5655 5660 5660 5661 5657 5653 5653 5654 5657 5658 5655 5651 5648 5650 5653 5653 5652 5649 5646 5643 5643 5643 5642 5640 5639 5638 5636 5636 5636 5635 5634 5633 5631 5630 5629 5627 5626 5625 5624 5622 5620 5619 5617 5616 5614 5612 5610 5608 5606 5604 5602 5601 5599 5597 5596 5593 5591 5589 5587 5585
5646 5642 5640 5640 5638 5640 5647 5653 5653 5653 5650 5646 5650 5656 5655 5651 5650 5646 5643 5643 5635 5633 5642 5631 5613 5627 5653 5655 5651 5653 5652 5651 5652 5650 5648 5649 5648 5643 5639 5641 5643 5642 5642 5640 5636 5635 5634 5632 5632 5631 5630 5629 5629 5628 5627 5626 5626 5625 5623 5622 5621 5619 5618 5617 5615 5613 5612 5611 5609 5607 5606 5604 5602 5600 5598 5596 5595 5593 5591 5589 5587 5585 5582 5581 5579 5577
5634 5632 5630 5629 5626 5626 5634 5642 5647 5646 5640 5638 5641 5644 5643 5642 5639 5635 5634 5628 5620 5624 5630 5618 5608 5623 5644 5647 5644 5646 5646 5645 5647 5646 5642 5641 5640 5637 5635 5633 5632 5632 5631 5629 5628 5627 5626 5623 5622 5621 5619 5620 5620 5620 5619 5618 5617 5616 5614 5613 5612 5611 5609 5608 5607 5605 5603 5602 5600 5599 5597 5595 5594 5592 5590 5588 5587 5585 5583 5581 5578 5576 5574 5572 5570 5568
5623 5620 5621 5619 5616 5617 5622 5631 5639 5637 5628 5626 5630 5632 5632 5631 5629 5627 5622 5614 5615 5617 5612 5609 5612 5615 5625 5637 5641 5642 5642 5639 5638 5639 5636 5635 5634 5632 5629 5624 5623 5624 5621 5619 5618 5617 5616 5614 5612 5611 5610 5612 5612 5611 5610 5609 5607 5606 5605 5604 5604 5602 5601 5600 5598 5596 5595 5593 5592 5590 5588 5587 5585 5583 5581 5580 5578 5576 5574 5572 5569 5567 5565 5563 5561 5559
5610 5606 5611 5610 5606 5608 5611 5616 5625 5625 5619 5618 5619 5620 5621 5621 5620 5617 5610 5608 5614 5608 5593 5601 5612 5605 5609 5625 5631 5632 5634 5631 5629 5630 5630 5630 5629 5626 5621 5617 5615 5614 5612 5609 5608 5606 5605 5604 5602 5603 5604 5604 5603 5602 5600 5599 5598 5598 5597 5596 5596 5594 5593 5591 5589 5588 5586 5584 5583 5581 5579 5578 5576 5574 5572 5571 5569 5567 5565 5563 5561 5559 5557 5554 5553 5551
5600 5594 5600 5601 5597 5599 5602 5603 5609 5612 5610 5610 5608 5607 5610 5610 5608 5605 5601 5605 5609 5595 5584 5596 5604 5598 5601 5612 5616 5619 5623 5620 5618 5619 5620 5621 5620 5619 5616 5611 5608 5606 5602 5599 5597 5596 5595 5594 5595 5596 5595 5594 5593 5593 5592 5591 5590 5590 5590 5589 5587 5586 5584 5582 5580 5579 5578 5576 5574 5572 5571 5569 5567 5566 5564 5562 5560 5558 5556 5554 5552 5551 5549 5547 5545 5543
5592 5586 5592 5594 5588 5589 5592 5593 5596 5598 5597 5598 5599 5599 5599 5598 5597 5597 5595 5598 5596 5585 5582 5591 5591 5587 5595 5603 5605 5608 5608 5606 5607 5609 5610 5611 5610 5610 5608 5602 5599 5597 5591 5587 5587 5588 5588 5588 5588 5588 5586 5585 5585 5584 5584 5584 5583 5582 5581 5580 5578 5577 5575 5573 5572 5571 5569 5567 5565 5563 5562 5560 5559 5557 5555 5553 5551 5549 5547 5546 5544 5542 5541 5539 5537 5535
5585 5581 5584 5585 5577 5575 5581 5585 5585 5585 5584 5584 5587 5590 5590 5588 5588 5590 5590 5589 5585 5577 5579 5582 5573 5572 5587 5596 5595 5594 5594 5593 5596 5599 5601 5602 5599 5598 5596 5591 5587 5585 5581 5579 5579 5581 5581 5580 5579 5578 5578 5577 5577 5577 5577 5576 5574 5573 5572 5570 5569 5568 5566 5565 5563 5562 5560 5558 5556 5555 5553 5552 5550 5548 5547 5545 5543 5541 5539 5538 5536 5534 5532 5531 5529 5527
5576 5573 5576 5576 5564 5560 5573 5577 5573 5575 5573 5567 5570 5580 5585 5584 5582 5582 5582 5581 5577 5572 5572 5569 5561 5563 5579 5586 5582 5581 5584 5585 5587 5590 5589 5587 5587 5586 5584 5579 5576 5575 5576 5575 5573 5572 5571 5570 5569 5570 5570 5569 5569 5569 5568 5565 5564 5563 5562 5561 5560 5559 5557 5556 5554 5552 5551 5549 5548 5546 5545 5543 5542 5540 5538 5537 5535 5533 5531 5529 5527 5526 5524 5522 5520 5518
5566 5563 5565 5565 5552 5549 5563 5567 5563 5563 5553 5543 5556 5575 5582 5581 5578 5574 5571 5572 5573 5571 5564 5558 5557 5563 5569 5570 5568 5571 5576 5578 5580 5581 5577 5573 5574 5574 5571 5567 5566 5566 5568 5568 5565 5564 5562 5561 5562 5562 5562 5562 5560 5559 5557 5555 5555 5554 5553 5552 5551 5550 5548 5547 5545 5544 5542 5541 5539 5538 5536 5535 5534 5532 5531 5529 5528 5526 5523 5521 5519 5517 5515 5513 5511 5509
5554 5553 5553 5552 5541 5538 5550 5556 5552 5541 5528 5531 5555 5572 5571 5569 5568 5565 5562 5564 5567 5565 5558 5553 5555 5560 5560 5558 5558 5560 5565 5569 5571 5571 5567 5561 5561 5562 5559 5557 5556 5557 5559 5558 5557 5556 5555 5554 5554 5554 5555 5554 5552 5550 5549 5548 5547 5546 5545 5544 5543 5541 5539 5538 5537 5535 5534 5533 5532 5531 5530 5528 5527 5526 5524 5522 5520 5518 5516 5513 5511 5509 5507 5505 5502 5500
5544 5542 5540 5540 5534 5529 5537 5543 5532 5515 5515 5533 5551 5555 5555 5557 5558 5554 5551 5554 5558 5557 5554 5552 5550 5552 5552 5551 5552 5552 5553 5557 5560 5559 5555 5552 5552 5552 5549 5549 5549 5548 5548 5548 5547 5547 5547 5547 5547 5547 5547 5546 5544 5543 5542 5540 5539 5538 5537 5536 5534 5533 5531 5530 5529 5528 5526 5525 5524 5523 5522 5521 5520 5518 5517 5515 5512 5510 5508 5505 5503 5501 5498 5496 5494 5492
5536 5534 5531 5529 5525 5522 5524 5523 5511 5504 5514 5527 5530 5537 5547 5550 5550 5544 5533 5535 5546 5549 5546 5544 5542 5543 5545 5544 5545 5546 5546 5546 5545 5543 5544 5546 5547 5545 5540 5540 5541 5538 5536 5536 5536 5536 5537 5537 5537 5538 5538 5537 5536 5535 5534 5532 5531 5530 5529 5528 5526 5525 5524 5523 5522 5520 5518 5516 5515 5515 5514 5512 5511 5509 5507 5505 5503 5501 5499 5497 5495 5492 5489 5487 5486 5484
5528 5525 5522 5518 5514 5514 5512 5506 5501 5501 5504 5508 5514 5529 5541 5540 5541 5537 5517 5512 5528 5536 5532 5532 5532 5534 5538 5538 5538 5538 5536 5531 5526 5526 5534 5540 5541 5538 5532 5530 5529 5526 5525 5526 5526 5525 5524 5525 5526 5527 5527 5528 5527 5525 5524 5523 5522 5522 5521 5520 5518 5517 5516 5515 5514 5511 5509 5508 5508 5506 5505 5503 5502 5500 5498 5496 5494 5491 5490 5488 5486 5484 5481 5479 5478 5474
5517 5514 5514 5508 5502 5506 5504 5495 5493 5490 5485 5495 5509 5521 5529 5529 5530 5528 5506 5491 5503 5518 5520 5522 5524 5524 5527 5527 5525 5524 5520 5512 5506 5513 5526 5531 5529 5527 5522 5518 5517 5515 5514 5516 5516 5514 5513 5513 5514 5516 5516 5517 5516 5515 5513 5513 5512 5512 5511 5510 5509 5507 5506 5505 5503 5501 5500 5500 5499 5497 5496 5494 5492 5490 5488 5486 5484 5483 5481 5480 5478 5476 5473 5471 5468 5465
5505 5504 5506 5499 5490 5496 5495 5484 5482 5478 5475 5489 5503 5508 5515 5518 5520 5517 5492 5470 5482 5505 5511 5513 5514 5512 5511 5510 5509 5509 5503 5495 5493 5502 5513 5515 5514 5513 5510 5508 5508 5505 5504 5504 5504 5502 5502 5501 5501 5504 5505 5506 5505 5503 5502 5502 5502 5501 5500 5499 5497 5497 5497 5495 5493 5491 5492 5491 5490 5488 5487 5485 5482 5481 5478 5476 5476 5474 5473 5472 5470 5467 5465 5462 5459 5456
5494 5493 5494 5488 5481 5486 5484 5474 5471 5471 5473 5483 5492 5497 5506 5510 5509 5499 5473 5459 5479 5499 5499 5498 5499 5496 5495 5495 5495 5494 5489 5483 5483 5489 5495 5497 5498 5499 5498 5496 5496 5495 5493 5491 5489 5489 5490 5489 5489 5491 5492 5493 5492 5490 5490 5491 5491 5489 5489 5488 5487 5488 5488 5485 5483 5483 5483 5482 5480 5478 5476 5474 5472 5470 5469 5468 5467 5466 5464 5463 5461 5458 5456 5453 5450 5448
5483 5482 5478 5476 5473 5475 5474 5465 5461 5464 5469 5477 5484 5489 5496 5499 5491 5477 5465 5470 5485 5486 5480 5481 5481 5478 5480 5481 5481 5480 5477 5474 5472 5475 5480 5482 5482 5483 5484 5482 5482 5482 5482 5480 5477 5477 5477 5478 5479 5480 5479 5478 5478 5478 5479 5479 5479 5479 5478 5478 5479 5479 5477 5475 5474 5474 5472 5470 5468 5467 5465 5465 5463 5462 5461 5460 5459 5457 5456 5454 5452 5450 5447 5445 5443 5441
5472 5469 5464 5464 5464 5464 5463 5457 5452 5455 5460 5468 5475 5480 5483 5481 5471 5463 5466 5475 5474 5465 5465 5468 5466 5463 5465 5466 5467 5467 5466 5466 5465 5465 5468 5469 5469 5470 5470 5469 5469 5469 5470 5469 5467 5465 5466 5467 5470 5469 5467 5466 5468 5469 5469 5468 5468 5469 5469 5469 5470 5469 5466 5465 5465 5464 5462 5459 5458 5457 5456 5456 5455 5454 5453 5452 5451 5449 5447 5445 5443 5442 5440 5437 5435 5433
5462 5458 5454 5456 5457 5455 5452 5449 5446 5446 5448 5452 5461 5468 5470 5464 5454 5451 5456 5460 5456 5452 5455 5456 5454 5452 5451 5451 5454 5455 5455 5456 5456 5455 5456 5457 5458 5459 5459 5458 5459 5459 5459 5459 5457 5457 5458 5459 5459 5459 5459 5459 5460 5460 5459 5459 5459 5459 5459 5459 5460 5458 5455 5455 5455 5453 5452 5450 5449 5448 5448 5447 5446 5445 5444 5443 5442 5441 5439 5436 5435 5433 5431 5429 5426 5424
5452 5450 5445 5446 5448 5445 5440 5439 5441 5441 5440 5440 5444 5450 5453 5449 5442 5440 5442 5444 5443 5441 5441 5441 5441 5440 5438 5437 5440 5441 5442 5444 5445 5445 5446 5446 5446 5448 5448 5449 5450 5450 5450 5451 5450 5451 5452 5450 5448 5448 5449 5451 5451 5450 5450 5450 5450 5449 5448 5448 5448 5447 5445 5445 5444 5442 5441 5440 5439 5439 5439 5438 5437 5436 5435 5434 5433 5431 5430 5428 5426 5424 5422 5420 5418 5416
5437 5440 5435 5431 5434 5433 5428 5429 5434 5436 5436 5435 5433 5435 5438 5436 5432 5431 5430 5428 5428 5427 5427 5427 5426 5426 5426 5424 5424 5426 5429 5431 5433 5435 5436 5435 5436 5438 5438 5438 5439 5439 5439 5440 5441 5441 5442 5440 5439 5438 5439 5441 5442 5440 5440 5441 5441 5439 5437 5436 5436 5435 5435 5434 5432 5431 5430 5430 5430 5430 5429 5429 5428 5428 5427 5426 5424 5423 5421 5419 5417 5415 5413 5411 5409 5407
5421 5425 5421 5416 5416 5417 5416 5421 5426 5427 5429 5430 5426 5425 5425 5422 5419 5420 5417 5414 5414 5413 5413 5413 5412 5413 5415 5413 5412 5413 5416 5418 5421 5424 5425 5425 5426 5427 5427 5427 5428 5428 5428 5429 5430 5431 5430 5430 5430 5430 5430 5431 5431 5430 5430 5431 5431 5430 5428 5426 5424 5424 5423 5421 5420 5419 5419 5420 5420 5420 5419 5419 5419 5418 5418 5417 5415 5414 5412 5410 5408 5407 5405 5403 5401 5399
5411 5414 5408 5402 5402 5401 5401 5409 5417 5415 5417 5422 5419 5414 5411 5408 5406 5407 5405 5402 5401 5399 5399 5400 5400 5401 5403 5404 5403 5403 5404 5407 5410 5411 5413 5415 5415 5417 5418 5417 5418 5419 5419 5419 5420 5420 5419 5419 5420 5421 5422 5421 5421 5420 5420 5421 5421 5419 5417 5416 5414 5413 5411 5410 5409 5409 5410 5410 5410 5410 5409 5409 5409 5409 5408 5407 5406 5405 5403 5402 5400 5398 5396 5394 5392 5390
5402 5403 5395 5389 5391 5389 5388 5397 5405 5402 5403 5409 5407 5400 5397 5395 5393 5392 5389 5384 5384 5386 5388 5390 5390 5390 5391 5393 5392 5391 5393 5396 5398 5398 5400 5402 5403 5406 5408 5408 5408 5409 5409 5409 5410 5409 5409 5409 5410 5411 5411 5412 5411 5409 5408 5409 5409 5407 5405 5404 5404 5402 5401 5400 5399 5399 5400 5400 5400 5400 5399 5399 5399 5399 5399 5398 5397 5396 5394 5393 5391 5390 5388 5385 5383 5381
5385 5387 5384 5379 5378 5377 5380 5387 5388 5384 5388 5397 5396 5387 5384 5382 5379 5377 5374 5371 5373 5377 5379 5380 5380 5379 5379 5379 5380 5380 5381 5384 5385 5385 5385 5388 5391 5393 5395 5396 5397 5398 5398 5399 5400 5399 5398 5399 5399 5399 5400 5402 5402 5399 5397 5398 5398 5395 5394 5393 5393 5392 5391 5389 5389 5389 5389 5390 5390 5389 5389 5389 5389 5390 5390 5389 5388 5386 5385 5384 5383 5381 5378 5376 5374 5372
5367 5369 5373 5371 5364 5364 5370 5375 5372 5366 5368 5379 5383 5377 5371 5367 5364 5365 5366 5366 5366 5366 5367 5368 5369 5369 5368 5368 5369 5369 5369 5371 5373 5372 5371 5374 5377 5378 5380 5382 5384 5385 5386 5388 5388 5388 5387 5387 5388 5388 5389 5390 5391 5389 5387 5388 5387 5385 5384 5383 5382 5382 5380 5379 5378 5378 5379 5379 5380 5379 5379 5380 5380 5380 5380 5379 5378 5377 5376 5375 5374 5372 5369 5367 5364 5363
5352 5352 5357 5356 5349 5350 5355 5359 5358 5352 5349 5355 5362 5362 5357 5353 5350 5351 5355 5357 5354 5351 5351 5351 5353 5356 5358 5358 5358 5356 5355 5356 5358 5358 5358 5360 5362 5363 5364 5367 5369 5370 5372 5374 5374 5374 5375 5376 5375 5376 5377 5379 5378 5377 5376 5377 5376 5374 5374 5373 5372 5370 5369 5368 5368 5368 5369 5369 5369 5369 5369 5369 5369 5369 5369 5369 5368 5367 5366 5365 5364 5363 5360 5358 5355 5354